Time,TemperatureF,DewpointF,PressureIn,WindDirection,WindDirectionDegrees,WindSpeedMPH,WindSpeedGustMPH,Humidity,HourlyPrecipIn,Conditions,Clouds,dailyrainin,SoftwareType,DateUTC
2013-02-05 00:03:00,50.0,44.0,30.08,West,270,4.0,6.0,80,-99.99,,,-99.99,,2013-02-05 05:03:00,
2013-02-05 00:12:00,50.0,44.0,30.08,West,270,4.0,6.0,80,-99.99,,,-99.99,,2013-02-05 05:12:00,
2013-02-05 00:22:00,51.0,45.0,30.08,WNW,296,4.0,6.0,78,-99.99,,,-99.99,,2013-02-05 05:22:00,
2013-02-05 00:32:00,53.0,47.0,30.08,NW,312,4.0,8.0,79,-99.99,,,-99.99,,2013-02-05 05:32:00,
2013-02-05 00:42:00,54.0,47.0,30.08,NW,314,4.0,6.0,76,-99.99,,,-99.99,,2013-02-05 05:42:00,
2013-02-05 00:52:00,52.0,45.0,30.08,NW,319,3.0,5.0,77,-99.99,,,-99.99,,2013-02-05 05:52:00,
2013-02-05 01:02:00,52.0,45.0,30.08,NW,319,3.0,5.0,77,-99.99,,,-99.99,,2013-02-05 06:02:00,
2013-02-05 01:11:00,48.0,42.0,30.07,WNW,301,1.0,4.0,78,-99.99,,,-99.99,,2013-02-05 06:11:00,
2013-02-05 01:22:00,45.0,41.0,30.07,SSW,205,1.0,4.0,84,-99.99,,,-99.99,,2013-02-05 06:22:00,
2013-02-05 01:32:00,45.0,41.0,30.07,SSW,205,1.0,4.0,84,-99.99,,,-99.99,,2013-02-05 06:32:00,
2013-02-05 01:42:00,43.0,40.0,30.06,SE,136,3.0,4.0,86,-99.99,,,-99.99,,2013-02-05 06:42:00,
2013-02-05 01:52:00,44.0,41.0,30.06,South,179,2.0,3.0,89,-99.99,,,-99.99,,2013-02-05 06:52:00,
2013-02-05 02:01:00,44.0,41.0,30.06,South,179,2.0,3.0,89,-99.99,,,-99.99,,2013-02-05 07:01:00,
2013-02-05 02:11:00,44.0,41.0,30.06,South,179,2.0,3.0,89,-99.99,,,-99.99,,2013-02-05 07:11:00,
2013-02-05 02:22:00,44.0,42.0,30.05,WSW,253,1.0,2.0,90,-99.99,,,-99.99,,2013-02-05 07:22:00,
2013-02-05 02:32:00,44.0,42.0,30.05,WSW,253,1.0,2.0,90,-99.99,,,-99.99,,2013-02-05 07:32:00,
2013-02-05 02:42:00,44.0,41.0,30.05,West,274,2.0,2.0,88,-99.99,,,-99.99,,2013-02-05 07:42:00,
2013-02-05 02:52:00,44.0,41.0,30.05,West,274,2.0,2.0,88,-99.99,,,-99.99,,2013-02-05 07:52:00,
2013-02-05 03:01:00,43.0,40.0,30.04,SW,223,2.0,2.0,89,-99.99,,,-99.99,,2013-02-05 08:01:00,
2013-02-05 03:11:00,43.0,40.0,30.04,SW,223,2.0,2.0,89,-99.99,,,-99.99,,2013-02-05 08:11:00,
2013-02-05 03:22:00,41.0,40.0,30.02,South,174,4.0,5.0,93,-99.99,,,-99.99,,2013-02-05 08:22:00,
2013-02-05 03:32:00,41.0,40.0,30.02,South,174,4.0,5.0,93,-99.99,,,-99.99,,2013-02-05 08:32:00,
2013-02-05 03:42:00,39.0,38.0,30.01,South,173,4.0,6.0,93,-99.99,,,-99.99,,2013-02-05 08:42:00,
2013-02-05 03:52:00,39.0,38.0,30.01,South,173,4.0,6.0,93,-99.99,,,-99.99,,2013-02-05 08:52:00,
2013-02-05 04:02:00,38.0,36.0,30.01,SSE,168,4.0,5.0,93,-99.99,,,-99.99,,2013-02-05 09:02:00,
2013-02-05 04:11:00,38.0,36.0,30.01,SSE,168,4.0,5.0,93,-99.99,,,-99.99,,2013-02-05 09:11:00,
2013-02-05 04:22:00,40.0,38.0,30.00,SSW,194,5.0,6.0,94,-99.99,,,-99.99,,2013-02-05 09:22:00,
2013-02-05 04:32:00,40.0,38.0,30.00,SSW,194,5.0,6.0,94,-99.99,,,-99.99,,2013-02-05 09:32:00,
2013-02-05 04:42:00,39.0,37.0,30.01,SSW,203,4.0,5.0,94,-99.99,,,-99.99,,2013-02-05 09:42:00,
2013-02-05 04:52:00,39.0,37.0,30.01,SSW,203,4.0,5.0,94,-99.99,,,-99.99,,2013-02-05 09:52:00,
2013-02-05 05:02:00,37.0,36.0,30.01,South,184,5.0,7.0,94,-99.99,,,-99.99,,2013-02-05 10:02:00,
2013-02-05 05:11:00,37.0,36.0,30.01,South,184,5.0,7.0,94,-99.99,,,-99.99,,2013-02-05 10:11:00,
2013-02-05 05:21:00,41.0,39.0,30.01,South,186,2.0,3.0,95,-99.99,,,-99.99,,2013-02-05 10:21:00,
2013-02-05 05:32:00,41.0,39.0,30.01,South,186,2.0,3.0,95,-99.99,,,-99.99,,2013-02-05 10:32:00,
2013-02-05 05:42:00,42.0,40.0,30.02,West,270,1.0,3.0,95,-99.99,,,-99.99,,2013-02-05 10:42:00,
2013-02-05 05:52:00,42.0,40.0,30.02,West,270,1.0,3.0,95,-99.99,,,-99.99,,2013-02-05 10:52:00,
2013-02-05 06:01:00,45.0,44.0,30.02,NW,309,3.0,5.0,96,-99.99,,,-99.99,,2013-02-05 11:01:00,
2013-02-05 06:11:00,45.0,44.0,30.03,WNW,284,3.0,6.0,95,-99.99,,,-99.99,,2013-02-05 11:11:00,
2013-02-05 06:22:00,47.0,45.0,30.04,WNW,300,6.0,11.0,95,-99.99,,,-99.99,,2013-02-05 11:22:00,
2013-02-05 06:32:00,47.0,45.0,30.04,WNW,300,6.0,11.0,95,-99.99,,,-99.99,,2013-02-05 11:32:00,
2013-02-05 06:41:00,46.0,43.0,30.05,WSW,257,2.0,4.0,91,-99.99,,,-99.99,,2013-02-05 11:41:00,
2013-02-05 06:42:00,49.0,46.0,30.04,West,271,5.0,10.0,90,-99.99,,,-99.99,,2013-02-05 11:42:00,
2013-02-05 06:52:00,46.0,43.0,30.05,WSW,257,2.0,4.0,91,-99.99,,,-99.99,,2013-02-05 11:52:00,
2013-02-05 07:02:00,46.0,43.0,30.05,WSW,257,2.0,4.0,91,-99.99,,,-99.99,,2013-02-05 12:02:00,
2013-02-05 07:12:00,46.0,43.0,30.05,WSW,257,2.0,4.0,91,-99.99,,,-99.99,,2013-02-05 12:12:00,
2013-02-05 07:22:00,46.0,43.0,30.05,WSW,257,2.0,4.0,91,-99.99,,,-99.99,,2013-02-05 12:22:00,
2013-02-05 07:30:00,42.0,40.0,30.07,West,277,2.0,3.0,94,-99.99,,,-99.99,,2013-02-05 12:30:00,
2013-02-05 07:32:00,46.0,43.0,30.05,WSW,257,2.0,4.0,91,-99.99,,,-99.99,,2013-02-05 12:32:00,
2013-02-05 07:52:00,42.0,40.0,30.07,WSW,248,2.0,3.0,94,-99.99,,,-99.99,,2013-02-05 12:52:00,
2013-02-05 08:02:00,42.0,40.0,30.07,West,277,2.0,3.0,94,-99.99,,,-99.99,,2013-02-05 13:02:00,
2013-02-05 08:12:00,42.0,40.0,30.07,West,277,2.0,3.0,94,-99.99,,,-99.99,,2013-02-05 13:12:00,
2013-02-05 08:22:00,42.0,40.0,30.07,West,277,2.0,3.0,94,-99.99,,,-99.99,,2013-02-05 13:22:00,
2013-02-05 08:42:00,51.0,47.0,30.08,SSE,156,5.0,8.0,88,-99.99,,,-99.99,,2013-02-05 13:42:00,
2013-02-05 08:52:00,51.0,47.0,30.08,SSE,156,5.0,8.0,88,-99.99,,,-99.99,,2013-02-05 13:52:00,
2013-02-05 09:01:00,53.0,47.0,30.08,NE,37,3.0,4.0,80,-99.99,,,-99.99,,2013-02-05 14:01:00,
2013-02-05 09:12:00,53.0,47.0,30.08,NE,37,3.0,4.0,80,-99.99,,,-99.99,,2013-02-05 14:12:00,
2013-02-05 09:22:00,53.0,47.0,30.08,NE,37,3.0,4.0,80,-99.99,,,-99.99,,2013-02-05 14:22:00,
2013-02-05 09:32:00,54.0,49.0,30.08,East,98,1.0,3.0,81,-99.99,,,-99.99,,2013-02-05 14:32:00,
2013-02-05 09:42:00,54.0,48.0,30.09,ENE,57,3.0,5.0,79,-99.99,,,-99.99,,2013-02-05 14:42:00,
2013-02-05 09:52:00,54.0,48.0,30.09,ENE,57,3.0,5.0,79,-99.99,,,-99.99,,2013-02-05 14:52:00,
2013-02-05 10:02:00,55.0,48.0,30.10,SSW,213,3.0,5.0,79,-99.99,,,-99.99,,2013-02-05 15:02:00,
2013-02-05 10:11:00,55.0,48.0,30.10,SSW,213,3.0,5.0,79,-99.99,,,-99.99,,2013-02-05 15:11:00,
2013-02-05 10:22:00,57.0,49.0,30.11,NNW,337,4.0,6.0,75,-99.99,,,-99.99,,2013-02-05 15:22:00,
2013-02-05 10:32:00,57.0,49.0,30.11,NNW,337,4.0,6.0,75,-99.99,,,-99.99,,2013-02-05 15:32:00,
2013-02-05 10:42:00,58.0,49.0,30.10,SW,214,3.0,5.0,74,-99.99,,,-99.99,,2013-02-05 15:42:00,
2013-02-05 10:52:00,58.0,49.0,30.10,SW,214,3.0,5.0,74,-99.99,,,-99.99,,2013-02-05 15:52:00,
2013-02-05 11:01:00,58.0,49.0,30.10,SSW,209,3.0,5.0,72,-99.99,,,-99.99,,2013-02-05 16:01:00,
2013-02-05 11:12:00,58.0,49.0,30.10,SSW,209,3.0,5.0,72,-99.99,,,-99.99,,2013-02-05 16:12:00,
2013-02-05 11:22:00,60.0,49.0,30.10,ESE,107,4.0,5.0,67,-99.99,,,-99.99,,2013-02-05 16:22:00,
2013-02-05 11:32:00,60.0,49.0,30.10,ESE,107,4.0,5.0,67,-99.99,,,-99.99,,2013-02-05 16:32:00,
2013-02-05 11:42:00,61.0,50.0,30.10,ENE,69,5.0,6.0,67,-99.99,,,-99.99,,2013-02-05 16:42:00,
2013-02-05 11:52:00,61.0,50.0,30.10,ENE,69,5.0,6.0,67,-99.99,,,-99.99,,2013-02-05 16:52:00,
2013-02-05 12:01:00,62.0,51.0,30.10,WNW,291,5.0,6.0,66,-99.99,,,-99.99,,2013-02-05 17:01:00,
2013-02-05 12:12:00,62.0,51.0,30.10,WNW,291,5.0,6.0,66,-99.99,,,-99.99,,2013-02-05 17:12:00,
2013-02-05 12:22:00,65.0,47.0,30.08,NW,318,4.0,6.0,51,-99.99,,,-99.99,,2013-02-05 17:22:00,
2013-02-05 12:32:00,65.0,47.0,30.08,NW,318,4.0,6.0,51,-99.99,,,-99.99,,2013-02-05 17:32:00,
2013-02-05 12:42:00,67.0,48.0,30.08,WNW,299,5.0,6.0,50,-99.99,,,-99.99,,2013-02-05 17:42:00,
2013-02-05 12:52:00,67.0,48.0,30.08,WNW,299,5.0,6.0,50,-99.99,,,-99.99,,2013-02-05 17:52:00,
2013-02-05 13:02:00,67.0,48.0,30.08,WNW,299,5.0,6.0,50,-99.99,,,-99.99,,2013-02-05 18:02:00,
2013-02-05 13:11:00,67.0,48.0,30.08,WNW,299,5.0,6.0,50,-99.99,,,-99.99,,2013-02-05 18:11:00,
2013-02-05 13:52:00,69.0,51.0,30.04,NE,40,6.0,8.0,52,-99.99,,,-99.99,,2013-02-05 18:52:00,
2013-02-05 14:02:00,69.0,51.0,30.04,NE,40,6.0,8.0,52,-99.99,,,-99.99,,2013-02-05 19:02:00,
2013-02-05 14:11:00,69.0,50.0,30.03,NE,39,6.0,8.0,50,-99.99,,,-99.99,,2013-02-05 19:11:00,
2013-02-05 14:22:00,69.0,50.0,30.03,NE,39,6.0,8.0,50,-99.99,,,-99.99,,2013-02-05 19:22:00,
2013-02-05 14:32:00,69.0,50.0,30.03,NE,39,6.0,8.0,50,-99.99,,,-99.99,,2013-02-05 19:32:00,
2013-02-05 14:42:00,69.0,50.0,30.03,NE,39,6.0,8.0,50,-99.99,,,-99.99,,2013-02-05 19:42:00,
2013-02-05 14:52:00,71.0,52.0,30.01,East,96,7.0,12.0,51,-99.99,,,-99.99,,2013-02-05 19:52:00,
2013-02-05 15:02:00,71.0,52.0,30.01,East,96,7.0,12.0,51,-99.99,,,-99.99,,2013-02-05 20:02:00,
2013-02-05 15:11:00,71.0,51.0,30.01,NE,47,5.0,9.0,49,-99.99,,,-99.99,,2013-02-05 20:11:00,
2013-02-05 15:22:00,71.0,51.0,30.01,NE,47,5.0,9.0,49,-99.99,,,-99.99,,2013-02-05 20:22:00,
2013-02-05 15:32:00,71.0,51.0,30.01,NE,47,5.0,9.0,49,-99.99,,,-99.99,,2013-02-05 20:32:00,
2013-02-05 15:42:00,72.0,52.0,30.00,East,83,5.0,7.0,49,-99.99,,,-99.99,,2013-02-05 20:42:00,
2013-02-05 15:52:00,71.0,53.0,30.00,NE,34,6.0,9.0,52,-99.99,,,-99.99,,2013-02-05 20:52:00,
2013-02-05 16:02:00,71.0,53.0,30.00,NE,34,6.0,9.0,52,-99.99,,,-99.99,,2013-02-05 21:02:00,
2013-02-05 16:11:00,71.0,54.0,29.99,NNE,30,8.0,9.0,56,-99.99,,,-99.99,,2013-02-05 21:11:00,
2013-02-05 16:22:00,71.0,54.0,29.99,NNE,30,8.0,9.0,56,-99.99,,,-99.99,,2013-02-05 21:22:00,
2013-02-05 16:32:00,71.0,53.0,29.99,NE,47,5.0,8.0,51,-99.99,,,-99.99,,2013-02-05 21:32:00,
2013-02-05 16:42:00,71.0,54.0,29.99,NNE,31,6.0,7.0,55,-99.99,,,-99.99,,2013-02-05 21:42:00,
2013-02-05 16:52:00,71.0,54.0,29.99,NNE,25,6.0,8.0,55,-99.99,,,-99.99,,2013-02-05 21:52:00,
2013-02-05 17:02:00,71.0,54.0,29.99,NNE,25,6.0,8.0,55,-99.99,,,-99.99,,2013-02-05 22:02:00,
2013-02-05 17:12:00,72.0,53.0,29.99,NNE,29,5.0,7.0,52,-99.99,,,-99.99,,2013-02-05 22:12:00,
2013-02-05 17:22:00,72.0,53.0,29.99,ESE,104,4.0,8.0,50,-99.99,,,-99.99,,2013-02-05 22:22:00,
2013-02-05 17:32:00,72.0,53.0,29.99,ESE,104,4.0,8.0,50,-99.99,,,-99.99,,2013-02-05 22:32:00,
2013-02-05 17:42:00,74.0,50.0,29.99,South,182,4.0,7.0,42,-99.99,,,-99.99,,2013-02-05 22:42:00,
2013-02-05 17:52:00,73.0,50.0,29.99,SSE,153,3.0,5.0,44,-99.99,,,-99.99,,2013-02-05 22:52:00,
2013-02-05 18:02:00,73.0,50.0,29.99,SSE,153,3.0,5.0,44,-99.99,,,-99.99,,2013-02-05 23:02:00,
2013-02-05 18:11:00,72.0,51.0,29.99,ESE,109,2.0,3.0,47,-99.99,,,-99.99,,2013-02-05 23:11:00,
2013-02-05 18:22:00,72.0,51.0,29.99,ESE,109,2.0,3.0,47,-99.99,,,-99.99,,2013-02-05 23:22:00,
2013-02-05 18:32:00,71.0,50.0,29.99,East,90,2.0,3.0,47,-99.99,,,-99.99,,2013-02-05 23:32:00,
2013-02-05 18:42:00,70.0,50.0,29.99,ESE,104,3.0,4.0,49,-99.99,,,-99.99,,2013-02-05 23:42:00,
2013-02-05 18:53:00,69.0,50.0,29.99,East,101,4.0,4.0,50,-99.99,,,-99.99,,2013-02-05 23:53:00,
2013-02-05 19:02:00,69.0,50.0,29.99,East,101,4.0,4.0,50,-99.99,,,-99.99,,2013-02-06 00:02:00,
2013-02-05 19:12:00,67.0,50.0,30.00,East,100,4.0,4.0,53,-99.99,,,-99.99,,2013-02-06 00:12:00,
2013-02-05 19:22:00,67.0,50.0,30.00,East,100,4.0,4.0,53,-99.99,,,-99.99,,2013-02-06 00:22:00,
2013-02-05 19:32:00,66.0,51.0,30.00,ENE,74,2.0,3.0,57,-99.99,,,-99.99,,2013-02-06 00:32:00,
2013-02-05 19:42:00,65.0,50.0,30.00,ENE,77,2.0,3.0,59,-99.99,,,-99.99,,2013-02-06 00:42:00,
2013-02-05 19:52:00,64.0,50.0,30.01,NE,45,2.0,3.0,59,-99.99,,,-99.99,,2013-02-06 00:52:00,
2013-02-05 20:02:00,64.0,50.0,30.01,NE,45,2.0,3.0,59,-99.99,,,-99.99,,2013-02-06 01:02:00,
2013-02-05 20:12:00,62.0,50.0,30.01,East,92,3.0,5.0,64,-99.99,,,-99.99,,2013-02-06 01:12:00,
2013-02-05 20:22:00,62.0,50.0,30.02,ESE,102,5.0,5.0,64,-99.99,,,-99.99,,2013-02-06 01:22:00,
2013-02-05 20:32:00,62.0,50.0,30.02,ESE,102,5.0,5.0,64,-99.99,,,-99.99,,2013-02-06 01:32:00,
2013-02-05 20:42:00,61.0,49.0,30.02,ESE,111,4.0,5.0,65,-99.99,,,-99.99,,2013-02-06 01:42:00,
2013-02-05 20:53:00,61.0,49.0,30.02,ESE,111,4.0,5.0,65,-99.99,,,-99.99,,2013-02-06 01:53:00,
2013-02-05 21:02:00,60.0,49.0,30.03,ESE,110,4.0,5.0,67,-99.99,,,-99.99,,2013-02-06 02:02:00,
2013-02-05 21:12:00,60.0,49.0,30.03,ESE,110,4.0,5.0,67,-99.99,,,-99.99,,2013-02-06 02:12:00,
2013-02-05 21:22:00,56.0,49.0,30.04,SSE,149,5.0,7.0,74,-99.99,,,-99.99,,2013-02-06 02:22:00,
2013-02-05 21:32:00,56.0,49.0,30.04,SSE,149,5.0,7.0,74,-99.99,,,-99.99,,2013-02-06 02:32:00,
2013-02-05 21:42:00,56.0,49.0,30.04,SSE,155,4.0,7.0,77,-99.99,,,-99.99,,2013-02-06 02:42:00,
2013-02-05 21:53:00,56.0,49.0,30.04,SSE,155,4.0,7.0,77,-99.99,,,-99.99,,2013-02-06 02:53:00,
2013-02-05 22:03:00,58.0,51.0,30.05,SW,221,5.0,9.0,75,-99.99,,,-99.99,,2013-02-06 03:03:00,
2013-02-05 22:12:00,58.0,51.0,30.05,SW,221,5.0,9.0,75,-99.99,,,-99.99,,2013-02-06 03:12:00,
2013-02-05 22:22:00,59.0,51.0,30.05,SSW,211,4.0,7.0,73,-99.99,,,-99.99,,2013-02-06 03:22:00,
2013-02-05 22:32:00,59.0,51.0,30.05,SSW,211,4.0,7.0,73,-99.99,,,-99.99,,2013-02-06 03:32:00,
2013-02-05 22:42:00,59.0,51.0,30.06,South,186,3.0,5.0,73,-99.99,,,-99.99,,2013-02-06 03:42:00,
2013-02-05 22:53:00,59.0,51.0,30.06,South,186,3.0,5.0,73,-99.99,,,-99.99,,2013-02-06 03:53:00,
2013-02-05 23:02:00,58.0,50.0,30.06,South,181,1.0,3.0,75,-99.99,,,-99.99,,2013-02-06 04:02:00,
2013-02-05 23:11:00,58.0,50.0,30.06,South,181,1.0,3.0,75,-99.99,,,-99.99,,2013-02-06 04:11:00,
2013-02-05 23:22:00,59.0,52.0,30.06,East,79,1.0,2.0,78,-99.99,,,-99.99,,2013-02-06 04:22:00,
2013-02-05 23:32:00,59.0,52.0,30.06,East,79,1.0,2.0,78,-99.99,,,-99.99,,2013-02-06 04:32:00,
2013-02-05 23:42:00,56.0,51.0,30.06,WSW,249,1.0,2.0,80,-99.99,,,-99.99,,2013-02-06 04:42:00,
2013-02-05 23:52:00,56.0,51.0,30.06,WSW,249,1.0,2.0,80,-99.99,,,-99.99,,2013-02-06 04:52:00,